TIBKO MRUP-MRLB

Flight info

Callsign TIBKO
Flight time 0h 31m
Altitude 8000
Route DCT
Aircraft PA34/L-SDFGRY/S

Departure

Time 2026-05-07 03:30
Airport Upala Airport (MRUP)

Arrival

Time 2026-05-07 04:01
Airport Daniel Oduber Quirós International Airport (MRLB)
Time Latitude Longitude Altitude Speed Heading
2026-05-07 03:13 10.89533 -85.01362 178 ft 0 kts 314°
2026-05-07 03:24 10.89535 -85.01364 178 ft 1 kts 314°
2026-05-07 03:26 10.89543 -85.01341 178 ft 11 kts 54°
2026-05-07 03:26 10.89534 -85.01298 178 ft 3 kts 247°
2026-05-07 03:28 10.89521 -85.01328 179 ft 8 kts 222°
2026-05-07 03:28 10.89486 -85.01362 180 ft 26 kts 223°
2026-05-07 03:29 10.89225 -85.01619 192 ft 77 kts 225°
2026-05-07 03:29 10.88848 -85.02077 471 ft 81 kts 246°
2026-05-07 03:29 10.88657 -85.02697 635 ft 100 kts 257°
2026-05-07 03:29 10.88548 -85.03258 773 ft 107 kts 255°
2026-05-07 03:30 10.88514 -85.03392 804 ft 109 kts 254°
2026-05-07 03:30 10.88253 -85.04128 1019 ft 111 kts 244°
2026-05-07 03:30 10.87918 -85.04870 1169 ft 125 kts 243°
2026-05-07 03:30 10.87582 -85.05613 1661 ft 104 kts 243°
2026-05-07 03:31 10.87247 -85.06272 1894 ft 115 kts 239°
2026-05-07 03:31 10.86844 -85.06987 2227 ft 111 kts 239°
2026-05-07 03:31 10.86472 -85.07676 2477 ft 118 kts 241°
2026-05-07 03:31 10.86134 -85.08461 2753 ft 117 kts 248°
2026-05-07 03:32 10.85865 -85.09219 3057 ft 117 kts 245°
2026-05-07 03:32 10.85459 -85.09967 3283 ft 119 kts 236°
2026-05-07 03:32 10.85056 -85.10679 3585 ft 117 kts 238°
2026-05-07 03:32 10.84512 -85.11322 3770 ft 121 kts 223°
2026-05-07 03:33 10.83932 -85.11873 3994 ft 116 kts 218°
2026-05-07 03:33 10.83277 -85.12480 3975 ft 123 kts 222°
2026-05-07 03:33 10.82664 -85.13101 4025 ft 128 kts 223°
2026-05-07 03:33 10.82035 -85.13744 4040 ft 129 kts 225°
2026-05-07 03:34 10.81481 -85.14330 4403 ft 100 kts 223°
2026-05-07 03:34 10.80937 -85.14864 4238 ft 126 kts 221°
2026-05-07 03:34 10.80255 -85.15489 4166 ft 129 kts 221°
2026-05-07 03:34 10.79628 -85.16105 4151 ft 124 kts 223°
2026-05-07 03:35 10.79009 -85.16730 4108 ft 123 kts 224°
2026-05-07 03:35 10.78445 -85.17306 4224 ft 113 kts 223°
2026-05-07 03:35 10.77861 -85.17879 4168 ft 118 kts 221°
2026-05-07 03:35 10.77307 -85.18451 4220 ft 114 kts 232°
2026-05-07 03:36 10.76842 -85.19110 4200 ft 117 kts 225°
2026-05-07 03:36 10.76255 -85.19694 4186 ft 116 kts 224°
2026-05-07 03:36 10.75719 -85.20209 4491 ft 112 kts 219°
2026-05-07 03:36 10.75124 -85.20766 4692 ft 116 kts 224°
2026-05-07 03:37 10.74579 -85.21353 4964 ft 114 kts 225°
2026-05-07 03:37 10.73992 -85.21944 5107 ft 120 kts 220°
2026-05-07 03:37 10.73354 -85.22516 5111 ft 121 kts 219°
2026-05-07 03:37 10.72690 -85.23042 5106 ft 120 kts 215°
2026-05-07 03:38 10.72032 -85.23547 5155 ft 115 kts 215°
2026-05-07 03:38 10.71395 -85.24053 5156 ft 118 kts 216°
2026-05-07 03:38 10.70746 -85.24577 5145 ft 120 kts 218°
2026-05-07 03:38 10.70109 -85.25135 5174 ft 118 kts 219°
2026-05-07 03:39 10.69484 -85.25698 5151 ft 120 kts 219°
2026-05-07 03:39 10.68835 -85.26238 5182 ft 116 kts 217°
2026-05-07 03:39 10.68185 -85.26758 5123 ft 123 kts 216°
2026-05-07 03:39 10.67507 -85.27271 5156 ft 118 kts 214°
2026-05-07 03:40 10.66836 -85.27755 5153 ft 120 kts 214°
2026-05-07 03:40 10.66173 -85.28290 5138 ft 121 kts 219°
2026-05-07 03:40 10.65533 -85.28861 5104 ft 123 kts 218°
2026-05-07 03:40 10.64891 -85.29427 5116 ft 122 kts 221°
2026-05-07 03:41 10.64507 -85.29834 5146 ft 119 kts 229°
2026-05-07 03:41 10.63996 -85.30492 5160 ft 118 kts 230°
2026-05-07 03:41 10.63393 -85.31435 5151 ft 119 kts 235°
2026-05-07 03:41 10.63101 -85.31920 5143 ft 120 kts 242°
2026-05-07 03:42 10.62873 -85.32704 5216 ft 116 kts 255°
2026-05-07 03:42 10.62636 -85.33813 5082 ft 127 kts 258°
2026-05-07 03:42 10.62529 -85.34397 5119 ft 122 kts 258°
2026-05-07 03:42 10.62397 -85.35230 5164 ft 118 kts 260°
2026-05-07 03:43 10.62289 -85.36080 5130 ft 122 kts 261°
2026-05-07 03:43 10.62169 -85.36937 5125 ft 122 kts 259°
2026-05-07 03:43 10.62041 -85.37791 5122 ft 122 kts 259°
2026-05-07 03:43 10.61910 -85.38645 5120 ft 122 kts 259°
2026-05-07 03:44 10.61778 -85.39494 5124 ft 121 kts 259°
2026-05-07 03:44 10.61646 -85.40339 5125 ft 121 kts 259°
2026-05-07 03:44 10.61514 -85.41186 5123 ft 121 kts 259°
2026-05-07 03:44 10.61384 -85.42022 5121 ft 121 kts 259°
2026-05-07 03:45 10.61252 -85.42867 5121 ft 121 kts 259°
2026-05-07 03:45 10.61121 -85.43713 5121 ft 121 kts 259°
2026-05-07 03:45 10.60988 -85.44560 5121 ft 121 kts 259°
2026-05-07 03:45 10.60856 -85.45406 5124 ft 121 kts 259°
2026-05-07 03:46 10.60723 -85.46259 5058 ft 124 kts 259°
2026-05-07 03:46 10.60592 -85.47104 4956 ft 118 kts 259°
2026-05-07 03:46 10.60465 -85.47922 4839 ft 116 kts 259°
2026-05-07 03:46 10.60338 -85.48731 4717 ft 115 kts 259°
2026-05-07 03:47 10.60213 -85.49533 4596 ft 115 kts 259°
2026-05-07 03:47 10.60090 -85.50323 4479 ft 114 kts 259°
2026-05-07 03:47 10.59965 -85.51122 4364 ft 114 kts 259°
2026-05-07 03:47 10.59841 -85.51920 4249 ft 114 kts 259°
2026-05-07 03:48 10.59715 -85.52720 4131 ft 114 kts 259°
2026-05-07 03:48 10.59590 -85.53519 4006 ft 114 kts 259°
2026-05-07 03:48 10.59465 -85.54317 3901 ft 114 kts 259°
2026-05-07 03:48 10.59341 -85.55104 3790 ft 114 kts 259°
2026-05-07 03:49 10.59217 -85.55900 3675 ft 114 kts 259°
2026-05-07 03:49 10.59091 -85.56701 3557 ft 114 kts 259°
2026-05-07 03:49 10.58966 -85.57501 3447 ft 114 kts 259°
2026-05-07 03:49 10.58841 -85.58299 3341 ft 115 kts 259°
2026-05-07 03:50 10.58718 -85.59102 3225 ft 115 kts 259°
2026-05-07 03:50 10.58595 -85.59902 3136 ft 113 kts 259°
2026-05-07 03:50 10.58473 -85.60700 3165 ft 116 kts 260°
2026-05-07 03:50 10.58347 -85.61530 3188 ft 119 kts 258°
2026-05-07 03:51 10.58194 -85.62380 3133 ft 123 kts 258°
2026-05-07 03:51 10.58035 -85.63214 3164 ft 119 kts 256°
2026-05-07 03:51 10.57885 -85.64041 3128 ft 120 kts 258°
2026-05-07 03:51 10.57742 -85.64880 3102 ft 118 kts 262°
2026-05-07 03:52 10.57665 -85.65697 3125 ft 116 kts 263°
2026-05-07 03:52 10.57574 -85.66478 3186 ft 111 kts 259°
2026-05-07 03:52 10.57447 -85.67233 3195 ft 103 kts 257°
2026-05-07 03:52 10.57321 -85.67941 3225 ft 98 kts 258°
2026-05-07 03:53 10.57160 -85.68650 3133 ft 104 kts 253°
2026-05-07 03:53 10.56969 -85.69338 3153 ft 99 kts 252°
2026-05-07 03:53 10.56768 -85.70004 3126 ft 99 kts 239°
2026-05-07 03:53 10.56271 -85.70466 3121 ft 94 kts 200°
2026-05-07 03:54 10.55627 -85.70530 3165 ft 95 kts 166°
2026-05-07 03:54 10.55040 -85.70226 3161 ft 101 kts 141°
2026-05-07 03:54 10.54498 -85.69715 3099 ft 108 kts 133°
2026-05-07 03:54 10.54020 -85.69126 3104 ft 106 kts 123°
2026-05-07 03:55 10.53666 -85.68475 3051 ft 107 kts 115°
2026-05-07 03:55 10.53485 -85.67768 2970 ft 101 kts 96°
2026-05-07 03:55 10.53499 -85.67066 2867 ft 99 kts 87°
2026-05-07 03:55 10.53574 -85.66372 2787 ft 96 kts 82°
2026-05-07 03:56 10.53713 -85.65697 2672 ft 99 kts 73°
2026-05-07 03:56 10.54046 -85.65075 2550 ft 99 kts 58°
2026-05-07 03:56 10.54399 -85.64462 2423 ft 102 kts 64°
2026-05-07 03:56 10.54737 -85.63836 2311 ft 101 kts 64°
2026-05-07 03:57 10.55008 -85.63189 2209 ft 100 kts 70°
2026-05-07 03:57 10.55304 -85.62552 2099 ft 101 kts 61°
2026-05-07 03:57 10.55667 -85.61925 1936 ft 105 kts 59°
2026-05-07 03:57 10.56039 -85.61296 1786 ft 101 kts 64°
2026-05-07 03:58 10.56337 -85.60704 1661 ft 95 kts 66°
2026-05-07 03:58 10.56612 -85.60087 1610 ft 100 kts 64°
2026-05-07 03:58 10.56971 -85.59415 1347 ft 110 kts 63°
2026-05-07 03:58 10.57308 -85.58735 1214 ft 106 kts 65°
2026-05-07 03:59 10.57638 -85.58108 1143 ft 98 kts 61°
2026-05-07 03:59 10.57962 -85.57484 941 ft 103 kts 64°
2026-05-07 03:59 10.58295 -85.56860 726 ft 93 kts 56°
2026-05-07 03:59 10.58643 -85.56311 587 ft 96 kts 59°
2026-05-07 04:00 10.58899 -85.55695 336 ft 95 kts 72°
2026-05-07 04:00 10.59096 -85.55131 285 ft 73 kts 70°
2026-05-07 04:00 10.59251 -85.54699 273 ft 58 kts 70°
2026-05-07 04:00 10.59373 -85.54352 273 ft 54 kts 70°
2026-05-07 04:01 10.59539 -85.53897 275 ft 67 kts 67°
2026-05-07 04:01 10.59669 -85.53575 274 ft 35 kts 44°
2026-05-07 04:01 10.59855 -85.53465 275 ft 27 kts 39°
2026-05-07 04:01 10.59903 -85.53363 275 ft 11 kts 45°
2026-05-07 04:02 10.59943 -85.53396 275 ft 9 kts 264°
2026-05-07 04:02 10.59911 -85.53490 275 ft 25 kts 249°
2026-05-07 04:02 10.59837 -85.53706 276 ft 22 kts 248°
2026-05-07 04:02 10.59843 -85.53757 275 ft 3 kts 339°
2026-05-07 04:03 10.59900 -85.53780 276 ft 9 kts 340°
2026-05-07 04:03 10.59914 -85.53785 276 ft 0 kts 341°
2026-05-07 04:03 10.59916 -85.53786 276 ft 0 kts 343°